Reno, NV

8:31 PM PDT on October 20, 2019 (GMT -0700)
Reno-Tahoe International

Weather History for KRNO - August, 2019

Change the Weather History Date:

Monday, August 26, 2019

  Actual Average Record
Temperature  
Mean Temperature 79 °F 71 °F  
Max Temperature 95 °F 89 °F 99 °F (1924)
Min Temperature 63 °F 54 °F 33 °F (1960)
Degree Days  
Heating Degree Days 0 0  
Month to date heating degree days 0 0  
Since 1 June heating degree days 15 61  
Since 1 July heating degree days 0 5  
Cooling Degree Days 14 6  
Month to date cooling degree days 331 229  
Year to date cooling degree days 922 716  
Since 1 June cooling degree days 908 679  
Growing Degree Days 29 (Base 50)    
Moisture  
Dew Point 38 °F    
Average Humidity 25    
Maximum Humidity 41    
Minimum Humidity 13    
Precipitation  
Precipitation 0.00 in 0.00 in 0.28 in (1928)
Month to date precipitation T 0.20  
Year to date precipitation 8.76 4.66  
Snow  
Snow 0.00 in 0.00 in 0.00 in ()
Month to date snowfall 0.0 0.0  
Since 1 June snowfall 0.0 T  
Since 1 July snowfall 0.0 0.0  
Snow Depth 0.00 in    
Sea Level Pressure  
Sea Level Pressure 29.94 in    
Wind  
Wind Speed 5 mph ()    
Max Wind Speed 12 mph    
Max Gust Speed 18 mph    
Visibility 10.0 miles    
Events      
T = Trace of Precipitation, MM = Missing Value Source: Averaged Metar Reports

Daily Weather History Graph

Daily Weather History Graph

Search for Another Location

Airport or City:

Astronomy

Aug. 26, 2019 Rise Set
Actual Time 6:21 AM PDT 7:39 PM PDT
Civil Twilight 5:53 AM PDT 8:07 PM PDT
Nautical Twilight 5:20 AM PDT 8:40 PM PDT
Astronomical Twilight 4:45 AM PDT 9:15 PM PDT
Moon 1:52 AM PDT (8/26) 5:06 PM PDT (8/26)
Length of Visible Light 14h 13m
Length of Day
13h 17m
Waning Crescent, 18% of the Moon is Illuminated
Aug 26
Waning Crescent
Aug 30
New
Sep 5
First Quarter
Sep 13
Full
Sep 21
Last Quarter

Hourly Weather History & Observations

Time (PDT) Temp. Dew Point Humidity Pressure Visibility Wind Dir Wind Speed Gust Speed Precip Events Conditions
12:55 AM 72.0 °F 43.0 °F 35% 29.98 in 10.0 mi West 4.6 mph - N/A   Clear
1:55 AM 69.1 °F 37.0 °F 31% 29.98 in 10.0 mi South 5.8 mph - N/A   Clear
2:55 AM 69.1 °F 39.0 °F 33% 29.97 in 10.0 mi West 5.8 mph - N/A   Clear
3:55 AM 64.9 °F 39.9 °F 40% 29.98 in 10.0 mi SE 3.5 mph - N/A   Clear
4:55 AM 64.9 °F 39.0 °F 39% 29.98 in 10.0 mi West 5.8 mph - N/A   Clear
5:55 AM 64.0 °F 39.0 °F 40% 29.99 in 10.0 mi West 4.6 mph - N/A   Clear
6:55 AM 64.0 °F 39.9 °F 41% 30.02 in 10.0 mi Variable 3.5 mph - N/A   Clear
7:55 AM 66.9 °F 41.0 °F 39% 30.04 in 10.0 mi West 4.6 mph - N/A   Clear
8:55 AM 73.0 °F 42.1 °F 33% 30.02 in 10.0 mi Variable 3.5 mph - N/A   Clear
9:55 AM 75.9 °F 43.0 °F 31% 30.01 in 10.0 mi Variable 3.5 mph - N/A   Clear
10:55 AM 82.0 °F 42.1 °F 24% 29.99 in 10.0 mi ENE 4.6 mph - N/A   Clear
11:55 AM 84.9 °F 39.0 °F 20% 29.98 in 10.0 mi Variable 3.5 mph - N/A   Clear
12:55 PM 89.1 °F 37.9 °F 16% 29.94 in 10.0 mi Variable 3.5 mph - N/A   Clear
1:55 PM 91.0 °F 36.0 °F 14% 29.92 in 10.0 mi Variable 5.8 mph - N/A   Clear
2:55 PM 93.0 °F 36.0 °F 13% 29.89 in 10.0 mi Variable 4.6 mph - N/A   Clear
3:55 PM 93.9 °F 37.0 °F 14% 29.87 in 10.0 mi ESE 8.1 mph - N/A   Partly Cloudy
4:55 PM 93.9 °F 36.0 °F 13% 29.86 in 10.0 mi East 5.8 mph - N/A   Partly Cloudy
5:55 PM 93.9 °F 35.1 °F 13% 29.86 in 10.0 mi NE 8.1 mph - N/A   Clear
6:55 PM 93.0 °F 35.1 °F 13% 29.85 in 10.0 mi NNE 9.2 mph - N/A   Clear
7:55 PM 88.0 °F 35.1 °F 15% 29.87 in 10.0 mi North 9.2 mph - N/A   Clear
8:55 PM 84.9 °F 33.1 °F 16% 29.89 in 10.0 mi NW 5.8 mph - N/A   Clear
9:55 PM 82.9 °F 34.0 °F 17% 29.91 in 10.0 mi WNW 3.5 mph - N/A   Clear
10:55 PM 78.1 °F 37.0 °F 23% 29.91 in 10.0 mi WNW 8.1 mph 17.3 mph N/A   Clear
11:55 PM 75.0 °F 37.0 °F 25% 29.91 in 10.0 mi West 4.6 mph - N/A   Clear